Regional Weather Roundup
Issued by NWS

Home | Current Version | Previous Version | Text Only | Print | Product List | Glossary On
Versions: 1 2 3 4 5 6 7 8 9 10 11 12 13 14 15 16 17 18 19 20 21 22 23 24 25 26 27
000
ASUS45 KCYS 202110
RWRWY

WYOMING REGIONAL WEATHER ROUNDUP
NATIONAL WEATHER SERVICE CHEYENNE WY
200 PM MST SAT JAN 20 2018

NOTE:  "FAIR" INDICATES FEW OR NO CLOUDS BELOW 12,000 FEET
WITH NO SIGNIFICANT WEATHER AND/OR OBSTRUCTIONS TO VISIBILITY.

WYZ001-202200-
YELLOWSTONE NATIONAL PARK

CITY           SKY/WX    TMP DP  RH WIND       PRES   REMARKS
LK YELLOWSTONE   N/A     19  10  68 VRB6      29.83F WCI  11
W YELLOWSTONE  NOT AVBL

$$
WYZ002>013-054>058-071-098>099-202200-
NORTHERN WYOMING

CITY           SKY/WX    TMP DP  RH WIND       PRES   REMARKS
JACKSON        FAIR      27  16  63 N14       29.82F WCI  16
CODY           CLOUDY    31  20  63 CALM      29.86F
GREYBULL       FAIR      34  25  69 CALM      29.87F
WORLAND        CLOUDY    31  29  92 CALM      29.86F
SHERIDAN       PTSUNNY   32  24  72 W5        29.90S WCI  27
BUFFALO        CLOUDY    31  15  52 N12       29.88S WCI  22
GILLETTE       CLOUDY    31  25  78 NW5       29.88S WCI  26
HULETT         CLOUDY    34  28  80 CALM      29.88F
NEWCASTLE      CLOUDY    32  28  86 NW9       29.87S WCI  24

$$
WYZ014>020-022>026-101>103-202200-
CENTRAL WYOMING

CITY           SKY/WX    TMP DP  RH WIND       PRES   REMARKS
BIG PINEY      CLOUDY    27  14  58 N9        29.75F WCI  18
PINEDALE       FLURRIES  27  18  69 NW12      29.75F WCI  16
DUBOIS         LGT SNOW  27  18  69 CALM      29.75S
LANDER         SNOW      26  24  92 E7        29.81S VSB 1/2 WCI  18
RIVERTON       SNOW      27  24  89 NE6       29.82S VSB 1/2 WCI  20
CASPER         LGT SNOW  25  23  92 NE15      29.84S VSB 3/4 WCI  13
DOUGLAS        SNOW      30  28  92 N7        29.85R VSB 1/2 WCI  23

$$
WYZ021-027>030-104>119-202200-
SOUTHERN WYOMING

CITY           SKY/WX    TMP DP  RH WIND       PRES   REMARKS
EVANSTON       FOG       21  19  92 N15       29.76S VSB 1/2 WCI   8
FORT BRIDGER   LGT SNOW  25  25 100 NW3       29.79S VSB 3/4
ROCK SPRINGS   LGT SNOW  26  22  84 NW6       29.73F VSB 1   WCI  19
DIXON          LGT RAIN  35  32  91 W6        29.73F WCI  30
RAWLINS        LGT SNOW  29  27  92 N6        29.73F FOG     WCI  23
SARATOGA       SNOW      30  30 100 NW3       29.73S VSB 1/2
LARAMIE        CLOUDY    40  22  48 SE24G31   29.68F WCI  29
CHEYENNE       CLOUDY    30  29  96 N10       29.77F WCI  21
TORRINGTON     CLOUDY    33  31  92 N10       29.82F WCI  25

$$




USA.gov is the U.S. government's official web portal to all federal, state and local government web resources and services.